VE2DEW-13 Weather Reports


time (UTC)temp
F
wind
direction
speed
knots
gust
knots
rain 1hr
in
rain 24hr
in
rain mn
in
humidity
%
barometer
mb
20260504081525 43 101 0.0 0.9 0.00 0.00 0.00 79 1006.1
20260504044519 40 115 0.0 0.9 0.00 0.00 0.00 65 1006.8
20260504043019 39 161 0.0 0.0 0.00 0.00 0.00 65 1006.9
20260504041523 40 161 0.0 0.9 0.00 0.00 0.00 62 1006.9
20260504040006 40 113 0.0 0.9 0.00 0.00 0.00 61 1007.0
20260504034510 40 113 0.0 0.9 0.00 0.00 0.00 61 1007.0
20260504033012 40 113 0.0 0.9 0.00 0.00 0.00 63 1007.1
20260504031512 41 145 0.0 0.9 0.00 0.00 0.00 61 1007.1
20260504030004 42 202 0.0 0.0 0.00 0.00 0.00 56 1007.2
20260504024506 42 202 0.0 0.9 0.00 0.00 0.00 56 1007.2
20260504023010 44 214 0.9 2.6 0.00 0.00 0.00 53 1007.3
20260504021513 43 221 0.9 1.7 0.00 0.00 0.00 53 1007.6
20260504020012 44 202 1.7 2.6 0.00 0.00 0.00 52 1007.6
20260504014506 44 221 1.7 4.3 0.00 0.00 0.00 52 1007.7
20260504013008 44 233 1.7 2.6 0.00 0.00 0.00 55 1007.7
20260504011511 45 224 0.9 1.7 0.00 0.00 0.00 53 1007.7
20260504010014 46 223 0.9 1.7 0.00 0.00 0.00 51 1007.6
20260504004531 47 223 0.9 1.7 0.00 0.00 0.00 48 1007.4
20260504003005 48 189 1.7 2.6 0.00 0.00 0.00 45 1007.4
20260504001526 49 238 0.9 2.6 0.00 0.00 0.00 42 1007.3
20260504000016 51 195 2.6 6.1 0.00 0.00 0.00 40 1007.3
20260503234518 51 232 1.7 6.1 0.00 0.00 0.00 40 1007.3
20260503233014 53 248 0.9 2.6 0.00 0.00 0.00 39 1007.2
20260503231505 53 285 1.7 3.5 0.00 0.00 0.00 38 1007.2
20260503230008 53 272 2.6 6.1 0.00 0.00 0.00 38 1007.2
20260503224518 54 255 0.9 7.0 0.00 0.00 0.00 37 1007.2
20260503223016 54 295 2.6 8.7 0.00 0.00 0.00 35 1007.2
20260503221517 55 295 4.3 12.2 0.00 0.00 0.00 33 1007.2
20260503220030 54 316 5.2 12.2 0.00 0.00 0.00 37 1007.3
20260503214520 53 273 3.5 10.4 0.00 0.01 0.00 39 1007.3
20260503213028 53 168 1.7 7.8 0.00 0.01 0.00 40 1007.4
20260503211519 53 290 2.6 7.8 0.00 0.01 0.00 40 1007.3
20260503210021 52 298 5.2 11.3 0.00 0.01 0.00 39 1007.2
20260503204527 52 293 4.3 10.4 0.00 0.01 0.00 41 1007.3
20260503203013 52 146 1.7 9.6 0.00 0.01 0.00 43 1007.3
20260503201518 52 264 6.1 11.3 0.00 0.02 0.00 40 1007.4
20260503200024 52 326 5.2 10.4 0.00 0.03 0.00 43 1007.6
20260503194522 51 260 5.2 11.3 0.00 0.03 0.00 42 1007.9
20260503193020 52 245 4.3 11.3 0.00 0.03 0.00 42 1008.0
20260503191514 51 312 3.5 10.4 0.00 0.03 0.00 44 1008.2
20260503190026 50 301 3.5 8.7 0.00 0.03 0.00 48 1008.3
20260503184524 50 302 3.5 10.4 0.00 0.03 0.00 46 1008.4
20260503183007 49 317 5.2 12.2 0.00 0.03 0.00 47 1008.5
20260503181523 50 300 5.2 12.2 0.00 0.04 0.00 45 1008.6
20260503180024 49 307 3.5 7.8 0.00 0.06 0.00 50 1008.8
20260503174519 49 283 4.3 8.7 0.00 0.11 0.00 49 1008.9
20260503173020 48 285 3.5 12.2 0.00 0.15 0.00 52 1009.1
20260503171506 49 311 3.5 8.7 0.00 0.16 0.00 50 1009.1